Location: Bexhill Reef
(50.8333°N, 0.4833°E)
Time: 00:43:14
(UTC+00:00)

Daily predictions for brighter satellites

Satellite Brightness Start Highest point End
(mag) Time Altitude Azimuth Time Altitude Azimuth Time Altitude Azimuth
Cosmos 2082 Rocket 4.3 00:06:59 10° WNW 00:09:22 13° W 00:11:39 10° WSW
Cosmos 2221 2.4 00:06:47 10° N 00:11:04 83° E 00:12:32 40° SSE
USA 307 4.3 00:13:38 10° W 00:15:14 19° WSW 00:15:14 19° WSW
Cosmos 2369 Rocket 2.1 00:15:02 28° SSW 00:18:06 86° WNW 00:23:47 10° NNE
CENTAUR R/B 3.3 00:12:38 10° NW 00:20:45 89° SW 00:30:02 10° SE
Cosmos 2173 Rocket 4.1 00:18:04 29° S 00:21:13 68° E 00:27:17 10° NNE
SL-8 R/B 3.7 00:21:55 25° SW 00:24:28 54° SSE 00:29:10 10° E
Cosmos 1862 4.0 00:25:47 31° WSW 00:27:04 42° WNW 00:30:46 10° N
Cosmos 44 Rocket 4.2 00:26:14 29° SSE 00:27:42 35° ESE 00:32:15 10° NE
Cosmos 1954 Rocket 4.4 00:23:02 10° NW 00:27:57 45° WSW 00:29:47 32° SSW
BREEZE-M DEB (TANK) 3.9 00:28:18 32° SSE 00:28:45 33° SE 00:35:43 10° ENE
Cosmos 2151 3.1 00:28:00 39° SSE 00:29:24 65° E 00:33:37 10° NNE
Cosmos 1624 Rocket 4.1 00:28:37 29° SW 00:31:18 75° WNW 00:36:35 10° NNE
PSLV R/B 4.3 00:27:59 10° N 00:32:09 45° WNW 00:34:16 26° SW
Iridium 4 Rocket 4.0 00:27:22 10° N 00:33:05 65° W 00:36:02 30° SSW
H-2A R/B 1.9 00:30:44 10° NNE 00:34:47 79° WNW 00:36:11 40° SSW
Cosmos 1420 Rocket 4.5 00:33:00 24° SW 00:36:08 57° WNW 00:41:22 10° NNE
Cosmos 2297 Rocket 3.9 00:31:24 10° NNW 00:36:25 31° NE 00:41:25 10° ESE
Meteor 2-21 Rocket 4.4 00:31:44 10° NNW 00:37:52 77° W 00:41:13 29° S
Cosmos 1850 Rocket 4.0 00:33:48 10° NNW 00:39:03 80° ENE 00:42:17 24° SSE
Cosmos 2263 4.2 00:36:04 27° SW 00:39:18 81° WNW 00:45:07 10° NNE
Cosmos 1076 Rocket 3.9 00:38:29 34° SSE 00:40:08 56° E 00:44:24 10° NNE
Cosmos 1340 Rocket 2.6 00:36:45 10° NNW 00:40:39 89° WSW 00:41:54 42° S
Cosmos 1943 Rocket 4.4 00:36:37 10° W 00:40:51 21° NW 00:45:06 10° NNE
Cosmos 1825 Rocket 3.7 00:40:45 35° SW 00:42:23 62° WNW 00:46:41 10° N
Okean 1 3.9 00:40:40 10° N 00:44:19 47° ENE 00:46:00 27° SE
Cosmos 1452 Rocket 3.9 00:43:06 29° SSE 00:45:25 50° ESE 00:50:30 10° NNE
Cosmos 2056 Rocket 3.9 00:42:45 24° SW 00:45:48 58° WNW 00:50:58 10° NNE
USA 59 Rocket 0.2 00:50:38 32° ESE 00:50:38 32° ESE 00:53:17 10° ENE
Akebono 4.3 00:49:18 10° NNW 00:51:55 64° NE 00:51:55 64° NE
Lacrosse 4 Rocket 1.7 00:50:57 28° WSW 00:52:53 58° NW 00:57:00 10° NNE
Meteor 2-8 Rocket 4.4 00:53:23 28° S 00:56:45 90° WNW 01:02:51 10° N
Cosmos 1953 Rocket 3.7 00:56:15 34° SSW 00:58:05 70° WNW 01:02:34 10° N
Lacrosse 5 rocket 1.3 00:58:00 25° WSW 01:00:10 74° NNW 01:04:12 10° ENE
NOSS 3-2 (A) 4.0 00:53:38 10° NW 01:00:54 80° SW 01:09:33 10° SE
USA 281 4.0 00:58:23 24° SSW 01:01:13 34° WSW 01:07:08 10° NW
USA 229 DEB 4.2 00:55:05 10° WSW 01:01:18 57° NW 01:08:12 10° NE
SL-27 R/B 4.1 00:59:21 10° WNW 01:00:40 16° W 01:00:40 16° W
USA 229 4.1 00:55:12 10° WSW 01:01:25 57° NW 01:08:20 10° NE
Cosmos 482 Debris 3.6 01:00:38 10° WNW 01:04:30 87° SSW 01:07:19 10° ESE
Cosmos 1331 Rocket 4.0 01:04:18 30° S 01:06:50 69° ESE 01:11:58 10° NNE
Cosmos 1626 4.0 01:05:23 10° NNE 01:07:51 21° ENE 01:10:11 11° ESE
COBE Rocket 4.0 01:05:48 10° NNE 01:10:43 66° E 01:13:15 28° S
ATLAS 5 CENTAUR R/B 3.9 01:06:57 10° NNW 01:10:48 29° NNE 01:15:23 10° E
CZ-2C R/B 3.5 01:06:05 10° SE 01:11:28 50° ENE 01:16:52 10° N
SJ 16-02 1.4 01:07:57 10° NNW 01:12:21 77° ENE 01:15:14 21° SSE
NOSS 2-1 (E) 2.8 01:13:34 48° S 01:14:04 56° SE 01:17:02 10° NE
CZ-4C R/B 4.4 01:08:58 10° WNW 01:14:04 20° WSW 01:16:37 17° SW
ATLAS 3B R/B 4.3 01:08:18 10° W 01:15:12 38° NNW 01:22:26 10° NE
CZ-2D R/B 3.5 01:15:03 10° NE 01:19:34 29° E 01:23:30 13° SSE
MOZ.5/SAFIR/RUBIN 5/SL-8 3.8 01:16:44 22° SSE 01:19:43 81° ENE 01:24:23 10° NNW
Nimbus 7 Rocket 4.5 01:14:30 10° NNE 01:20:31 76° WNW 01:24:11 25° SSW
SL-08 R/B 4.5 01:17:34 25° SSW 01:21:20 84° W 01:27:37 10° N
Cosmos 1741 Rocket 4.2 01:16:17 10° NNW 01:21:25 52° WSW 01:24:04 27° S
Uosat 12 SS-18 rocket 3.9 01:20:36 10° NW 01:24:55 76° SW 01:28:48 13° SSE
Cosmos 2016 Rocket 4.1 01:21:04 25° SSW 01:24:59 71° WNW 01:31:20 10° N
Cosmos 2233 Rocket 4.0 01:22:17 24° S 01:26:21 85° E 01:32:38 10° N
Gblst 52 Del rocket 4.1 01:22:24 10° WSW 01:27:55 90° N 01:33:34 10° E
NOSS 2-1 (D) 2.6 01:27:02 42° SW 01:28:00 86° SE 01:31:01 10° NE
NOSS 7 (H) 4.0 01:25:08 10° NW 01:28:02 75° SW 01:30:01 22° SE
ASTEX 1 3.6 01:30:27 27° SSW 01:33:00 56° W 01:37:53 10° NNW
Cosmos 1151 Rocket 3.4 01:29:18 10° N 01:33:37 63° ENE 01:36:53 17° SSE
Meteor 1-27 Rocket 3.8 01:27:58 10° NNW 01:33:49 70° W 01:37:38 22° S
NOSS 3-2 (C) 4.0 01:27:42 10° NW 01:34:58 89° SW 01:43:39 10° SE
Lacrosse 5 1.8 01:30:29 10° WNW 01:35:31 66° SW 01:40:32 10° SE
Cosmos 1461 4.5 01:34:02 10° WNW 01:35:59 16° WSW 01:35:59 16° WSW
Cosmos 1725 Rocket 4.3 01:32:37 23° SSW 01:36:38 60° WNW 01:42:53 10° N
COSMOS 2455 4.0 01:31:53 10° NW 01:36:43 26° WSW 01:38:45 21° SW
USA 234 3.7 01:31:18 10° ENE 01:37:35 46° SE 01:41:40 21° SSW
NPP 4.1 01:32:43 10° NNE 01:38:03 56° E 01:41:51 19° S
Cosmos 1867 3.9 01:34:56 10° NW 01:40:27 69° NE 01:45:54 10° SE
Meteor 1-19 Rocket 4.5 01:37:38 10° NNW 01:43:22 58° W 01:47:17 21° SSW
Meteor 1-25 Rocket 4.3 01:40:41 23° SSW 01:44:29 86° WNW 01:50:22 10° NNE
H-2A R/B 4.2 01:41:14 10° NNE 01:45:08 43° E 01:47:47 18° SSE
Cosmos 1900 4.3 01:41:07 10° NW 01:46:06 87° SW 01:50:59 10° SE
Helios 1A Rocket 3.2 01:44:43 29° SSW 01:46:14 44° W 01:49:58 10° NNW
ADEOS II 3.3 01:43:15 10° NNE 01:48:03 34° E 01:52:43 10° SSE
SL-16 R/B 3.5 01:43:21 10° SE 01:49:12 48° ENE 01:55:05 10° N
Resurs 1-4 Rocket 2.6 01:45:03 10° NNE 01:50:17 54° E 01:54:25 16° S
Cosmos 968 Rocket 4.1 01:45:46 10° NW 01:50:38 39° WSW 01:53:23 22° SSW
Cosmos 1302 Rocket 4.0 01:48:24 23° SSW 01:51:45 76° ESE 01:57:01 10° NNE
ATLAS CENTAUR R/B 3.8 01:49:08 21° SSW 01:53:05 48° SE 02:02:08 10° ENE
IDEFIX/ARIANE 42P 2.6 01:48:00 10° NNE 01:53:13 76° ESE 01:56:54 20° S
Cosmos 2263 Rocket 4.3 01:51:15 10° NNW 01:56:06 29° NE 02:00:58 10° ESE
Cosmos 2369 Rocket 4.1 01:58:36 10° W 02:02:58 23° NW 02:07:22 10° NNE
Cosmos 1464 Rocket 4.5 01:58:46 11° SSE 02:04:31 57° E 02:10:30 10° NNE
Cosmos 2227 Rocket 2.7 01:59:46 10° NNW 02:05:24 62° NE 02:10:59 10° SE
SL-8 R/B 3.6 02:01:54 10° W 02:06:41 66° S 02:11:27 10° ESE
Cosmos 44 Rocket 4.0 02:04:51 14° WSW 02:09:04 51° NW 02:13:57 10° NE
H-2A R/B 4.4 02:08:28 10° NW 02:09:48 11° NW 02:11:07 10° WNW
Cosmos 1743 3.1 02:07:23 17° S 02:10:02 55° E 02:13:39 10° NNE
CENTAUR R/B 4.0 02:03:51 10° NW 02:11:00 32° WSW 02:17:38 14° SSW
Cosmos 1697 Rocket 3.8 02:06:26 11° S 02:11:14 36° ESE 02:16:19 10° NE
Meteor 1-5 Rocket 4.1 02:09:48 17° S 02:14:02 89° W 02:19:25 10° NNE
Cosmos 1486 Rocket 4.5 02:10:09 10° NNW 02:15:29 66° ENE 02:20:46 10° SE
Cosmos 1066 Rocket 4.3 02:11:16 10° N 02:16:40 77° ENE 02:22:07 10° SSE
NOSS 2-1 (C) 4.0 02:15:37 13° W 02:18:01 33° NW 02:20:50 10° NNE
Cosmos 2297 Rocket 2.2 02:15:16 10° NW 02:20:52 62° WSW 02:26:26 10° SSE
Meteor 2-17 Rocket 4.4 02:16:35 10° NNW 02:22:47 83° W 02:28:53 10° S
Cosmos 1992 Rocket 4.1 02:20:06 16° SSW 02:24:17 74° ESE 02:29:29 10° NNE
CZ-2C R/B 2.8 02:20:57 10° NNE 02:25:44 84° WNW 02:29:40 15° SSW
Meteor 2-4 Rocket 3.8 02:21:05 10° NNW 02:26:20 55° W 02:31:16 12° S
Cosmos 304 Rocket 4.0 02:22:32 10° NNW 02:27:22 73° ENE 02:32:09 10° SSE
Cosmos 1842 4.1 02:24:31 10° N 02:28:08 47° ENE 02:31:42 10° SSE
Cosmos 2344 3.5 02:23:34 15° SW 02:30:02 88° NW 02:37:34 10° NE
COSMOS 2441 4.4 02:26:11 10° NNE 02:31:07 88° WNW 02:35:26 13° SSW
Lacrosse 4 Rocket 3.9 02:29:42 10° WNW 02:32:02 15° NNW 02:34:24 10° N
Cosmos 1707 3.6 02:33:27 10° N 02:37:00 46° ENE 02:40:31 10° SSE
Lacrosse 5 rocket 2.8 02:35:15 10° WNW 02:38:54 35° N 02:42:42 10° ENE
USA 59 Rocket 1.0 02:37:31 10° W 02:40:06 24° NNW 02:42:40 10° NNE
Cosmos 1626 3.0 02:38:29 10° NW 02:41:06 24° W 02:42:44 16° SW
USA 238 DEB 3.9 02:34:17 10° NW 02:41:34 71° SW 02:49:25 10° SSE
USA 238 3.9 02:34:23 10° NW 02:41:39 71° SW 02:49:28 10° SSE
Cosmos 1515 Rocket 4.0 02:38:18 10° N 02:42:44 64° ENE 02:47:07 10° SSE
Cosmos 1656 3.9 02:39:14 14° SW 02:43:56 63° WNW 02:49:28 10° NNE
Cosmos 1980 Rocket 3.6 02:40:02 10° SSE 02:45:02 32° ESE 02:50:01 10° NE
USA 32 4.2 02:40:55 10° NNW 02:46:02 55° W 02:51:07 10° SSW
Cosmos 1777 Rocket 4.4 02:43:13 10° NNW 02:48:26 68° ENE 02:53:35 10° SSE
Cosmos 1766 Rocket 3.6 02:44:24 12° SSW 02:48:31 77° WNW 02:52:55 10° N
Cosmos 1674 2.3 02:46:26 10° NNW 02:49:48 71° W 02:53:10 10° S
Cosmos 1400 Rocket 3.2 02:46:09 10° N 02:50:01 63° ENE 02:53:55 10° SSE
SJ 16-02 3.2 02:47:47 10° WNW 02:50:04 14° W 02:51:56 11° WSW
CZ-2C R/B 3.6 02:47:26 12° SSW 02:51:55 31° W 02:56:54 10° NNW
Cosmos 1726 1.6 02:51:38 13° SSW 02:54:13 68° WNW 02:57:13 10° N
ATLAS 5 CENTAUR R/B 1.9 02:50:16 10° NW 02:54:59 83° SW 03:00:54 10° SE
MSX 4.4 02:49:57 10° N 02:55:26 46° WNW 03:00:48 10° SW
Meteor 1-28 Rocket 3.4 02:54:50 10° S 02:58:19 47° W 03:01:50 10° NNW
Cosmos 1354 Rocket 4.3 02:54:03 10° NNW 02:59:18 73° ENE 03:04:31 10° SSE
CZ-2D R/B 2.6 02:54:48 10° N 02:59:48 48° WNW 03:04:46 10° SW
SL-24 R/B 4.3 02:55:56 10° N 03:00:08 57° WNW 03:04:20 10° SSW
ALOS 2.3 02:56:48 10° NNE 03:01:27 89° ESE 03:06:04 10° SSW
Tiangong -0.2 03:00:36 12° SSW 03:01:52 15° S 03:03:43 10° SSE
Cosmos 1328 Rocket 4.2 02:59:58 10° NNW 03:04:07 40° W 03:08:14 10° SSW
AQUA 3.9 03:01:44 10° N 03:06:27 69° WNW 03:11:08 10° SSW
In-Cosmos 22 4.4 03:01:29 10° N 03:06:55 73° ENE 03:12:26 10° SSE
Cosmos 371 Rocket 3.7 03:04:18 10° NW 03:08:55 44° WSW 03:13:30 10° S
Cosmos 1536 2.9 03:06:43 10° S 03:10:40 77° E 03:14:38 10° NNE
Cosmos 2219 3.2 03:11:13 10° NNW 03:16:54 77° WSW 03:22:36 10° SSE
Lacrosse 5 3.4 03:14:41 10° W 03:17:41 16° WSW 03:20:42 10° SSW
Cosmos 2360 4.5 03:12:03 10° SW 03:17:43 62° NW 03:23:26 10° NNE
FENGYUN 3A 4.2 03:13:22 10° N 03:18:34 48° WNW 03:23:45 10° SW
Cosmos 1500 Rocket 4.2 03:14:44 10° S 03:18:59 56° E 03:23:19 10° NNE
NOSS 2-2 (C) 3.9 03:15:34 10° NW 03:19:42 86° NE 03:25:31 10° SE
Gblst 52 Del rocket 4.2 03:14:11 10° W 03:19:42 90° SSW 03:25:37 10° ESE
USA 234 3.4 03:14:19 10° ENE 03:20:54 78° NNW 03:27:26 10° WSW
NOSS 3-4 (C) 3.4 03:16:22 10° SW 03:21:55 80° SE 03:28:04 10° NE
NOSS 3-4 (A) 3.3 03:16:50 10° SW 03:22:20 81° SE 03:28:26 10° NE
Cosmos 1733 3.3 03:19:37 10° S 03:23:06 69° E 03:26:37 10° NNE
NOSS 2-2 (E) 4.2 03:19:06 10° NW 03:23:07 69° NE 03:28:41 10° SE
